Voltar ao catálogo

USA 78

AtivoMilitarGEO
NORAD 21873·PAYLOAD·🇺🇸 United States

Lançado Feb 11, 1992 de Cape Canaveral Space Force Station

Loading…

TLE

AtualizadoSource: Space-Track

Época: Sep 14, 2026, 00:09 UTC

1 21873U 92006A   26257.00632310 -.00000164  00000-0  00000-0 0  9997
2 21873  14.8544   2.0201 0005344 326.8328  33.7224  0.99042674 26068

Acompanhe USA 78 em tempo real com AllMySat

Download on the App Store